Monticello, AR

4:56 AM CST on December 03, 2016 (GMT -0600)
Monticello Municipal-Ellis

Weather History for KLLQ - August, 2013

Change the Weather History Date:

Sunday, August 4, 2013

  Actual Average Record
Temperature  
Mean Temperature 84 °F -  
Max Temperature 95 °F 90 °F 104 °F (1964)
Min Temperature 75 °F 67 °F 59 °F (1973)
Cooling Degree Days 19    
Growing Degree Days 34 (Base 50)    
Moisture  
Dew Point 75 °F    
Average Humidity 78    
Maximum Humidity 94    
Minimum Humidity 49    
Precipitation  
Precipitation 0.19 in - - ()
Sea Level Pressure  
Sea Level Pressure 30.04 in    
Wind  
Wind Speed 2 mph (NE)    
Max Wind Speed 10 mph    
Max Gust Speed -    
Visibility 9 miles    
Events Rain , Thunderstorm    
Averages and records for this station are not official NWS values.
T = Trace of Precipitation, MM = Missing Value Source: NWS Daily Summary

Daily Weather History Graph

Daily Weather History Graph

Search for Another Location

Airport or City:

Trip Planner

Search our weather history database for the weather conditions in past years. The results will help you decide how hot, cold, wet, or windy it might be!

Date:

Astronomy

Aug. 04, 2013 Rise Set
Actual Time 6:21 AM CDT 8:04 PM CDT
Civil Twilight 5:54 AM CDT 8:31 PM CDT
Nautical Twilight 5:21 AM CDT 9:03 PM CDT
Astronomical Twilight 4:47 AM CDT 9:37 PM CDT
Moon 4:23 AM CDT (8/4) 6:27 PM CDT (8/4)
Length of Visible Light 14h 36m
Length of Day
13h 42m
Waning Crescent, 4% of the Moon is Illuminated
Aug 4
Waning Crescent
Aug 6
New
Aug 14
First Quarter
Aug 20
Full
Aug 28
Last Quarter

Hourly Weather History & Observations

Time (CDT) Temp. Heat Index Dew Point Humidity Pressure Visibility Wind Dir Wind Speed Gust Speed Precip Events Conditions
12:53 AM 77.0 °F - 73.0 °F 88% 30.06 in 10.0 mi Calm Calm - N/A   Clear
1:53 AM 77.0 °F - 73.0 °F 88% 30.06 in 10.0 mi Calm Calm - N/A   Clear
2:53 AM 75.0 °F - 73.0 °F 94% 30.05 in 9.0 mi Calm Calm - N/A   Clear
3:53 AM 75.9 °F - 73.0 °F 91% 30.03 in 9.0 mi Calm Calm - N/A   Clear
4:53 AM 75.0 °F - 73.0 °F 94% 30.05 in 6.0 mi Calm Calm - N/A   Clear
5:53 AM 75.0 °F - 73.0 °F 94% 30.07 in 8.0 mi Calm Calm - N/A   Clear
6:53 AM 75.0 °F - 72.0 °F 90% 30.09 in 6.0 mi Calm Calm - N/A   Clear
7:53 AM 77.0 °F - 73.0 °F 88% 30.08 in 10.0 mi Calm Calm - N/A   Scattered Clouds
8:53 AM 81.0 °F 86.2 °F 73.9 °F 79% 30.10 in 10.0 mi ENE 3.5 mph - N/A   Scattered Clouds
9:53 AM 84.0 °F 91.9 °F 75.0 °F 74% 30.11 in 10.0 mi Variable 3.5 mph - 0.00 in Rain Light Rain
10:53 AM 86.0 °F 93.0 °F 73.0 °F 65% 30.11 in 10.0 mi Variable 4.6 mph - 0.00 in   Clear
11:53 AM 89.1 °F 98.0 °F 73.9 °F 61% 30.09 in 10.0 mi Calm Calm - N/A   Clear
12:53 PM 91.0 °F 100.4 °F 73.9 °F 57% 30.07 in 10.0 mi Variable 5.8 mph - N/A   Scattered Clouds
1:53 PM 93.0 °F 101.9 °F 73.0 °F 52% 30.04 in 10.0 mi Variable 3.5 mph - N/A   Clear
2:53 PM 93.9 °F 103.4 °F 73.0 °F 51% 30.02 in 10.0 mi Variable 5.8 mph - N/A   Scattered Clouds
3:45 PM 93.2 °F 100.5 °F 71.6 °F 49% 30.02 in 10.0 mi Variable 6.9 mph - N/A Thunderstorm Clear
3:53 PM 93.0 °F 103.2 °F 73.9 °F 54% 30.01 in 10.0 mi Variable 6.9 mph - N/A Thunderstorm Clear
4:18 PM 91.4 °F 98.4 °F 71.6 °F 52% 30.02 in 10.0 mi ENE 6.9 mph - N/A   Partly Cloudy
4:53 PM 87.1 °F 94.5 °F 73.0 °F 63% 30.01 in 10.0 mi SSE 5.8 mph - N/A   Overcast
5:24 PM 80.6 °F 86.2 °F 75.2 °F 84% 30.02 in 1.8 mi SW 10.4 mph - 0.07 in Rain Heavy Rain
5:40 PM 80.6 °F 86.2 °F 75.2 °F 84% 30.02 in 1.5 mi NNW 3.5 mph - 0.19 in Rain , Thunderstorm Thunderstorms and Rain
5:44 PM 80.6 °F 87.1 °F 77.0 °F 89% 30.02 in 3.0 mi NNW 6.9 mph - 0.19 in Rain , Thunderstorm Light Thunderstorms and Rain
5:53 PM 82.0 °F 90.2 °F 77.0 °F 85% 30.01 in 9.0 mi Calm Calm - 0.19 in Rain , Thunderstorm Light Thunderstorms and Rain
6:24 PM 86.0 °F 99.3 °F 78.8 °F 79% 30.01 in 10.0 mi Calm Calm - 0.00 in   Partly Cloudy
6:53 PM 82.0 °F 91.6 °F 79.0 °F 90% 30.00 in 9.0 mi NW 3.5 mph - 0.00 in   Clear
7:53 PM 82.0 °F 91.6 °F 79.0 °F 90% 30.02 in 7.0 mi Calm Calm - N/A   Clear
8:53 PM 81.0 °F 88.6 °F 78.1 °F 91% 30.03 in 10.0 mi Calm Calm - 0.00 in   Clear
9:53 PM 81.0 °F 87.9 °F 77.0 °F 88% 30.04 in 10.0 mi Calm Calm - N/A   Clear
10:53 PM 80.1 °F 85.4 °F 75.9 °F 87% 30.04 in 10.0 mi Calm Calm - N/A   Clear
11:53 PM 79.0 °F - 75.0 °F 88% 30.03 in 10.0 mi East 3.5 mph - N/A   Clear